{"data":{"norad_id":67717,"epoch":"2026-09-19T13:20:24.858528Z","epoch_age_seconds":148016,"freshness":"FRESH","line1":"1 67717U 26025AA  26262.55584327  .00017685  00000+0  54869-3 0  9991","line2":"2 67717  97.2883  12.5147 0000491  93.0269 267.1030 15.33453413 35728","mean_motion":15.33453413,"eccentricity":4.91e-5,"inclination_deg":97.2883,"raan_deg":12.5147,"arg_perigee_deg":93.0269,"mean_anomaly_deg":267.103,"bstar":0.00054869,"rev_number":3572,"period_min":93.905689458334,"perigee_km":465.18211995608,"apogee_km":465.85416689116,"semimajor_km":6843.6551434236,"source":"CELESTRAK","updated_at":"2026-09-20T09:00:43.656047Z"}}